This demonstration page uses our WeatherBlox Daily Observations layout. Learn more.

Left ArrowRight Arrow

Hourly Observations for June 4, 2021

Temp ( °F °C ) Dew Point ( °F °C ) Humidity (%) Winds ( mph kmh ) Pressure ( in mb ) Visibility ( mi km ) Precip ( " mm )
12:15 am 00:15 Clear with Mist and Fog 60 15.6 59 15 96 96 N N/A 29.99 1015 2 3 N/A
12:21 am 00:21 Mostly Clear with Mist and Fog 59 15 59 15 100 100 N N/A 29.99 1015 4 6 N/A
12:25 am 00:25 Mostly Clear with Mist and Fog 59 15 59 15 100 100 N N/A 29.99 1015 1 2 N/A
12:31 am 00:31 Mostly Cloudy with Fog 59 15 59 15 100 100 N N/A 29.99 1015 0 0 N/A
12:49 am 00:49 Mostly Cloudy with Fog 57 14 57 14 100 100 N N/A 29.98 1015 0 0 N/A
12:53 am 00:53 Mostly Cloudy with Fog 58 14.4 58 14.4 100 100 N N/A 29.97 1015 0 0 N/A
1:53 am 01:53 Mostly Cloudy with Fog 61 16.1 61 16.1 100 100 N N/A 29.97 1015 0 0 N/A
2:01 am 02:01 Mostly Cloudy with Fog 61 16.1 61 16.1 100 100 N N/A 29.97 1015 1 1 N/A
2:10 am 02:10 Mostly Cloudy with Fog 62 16.7 61 16.1 96 96 VRB 3 6 29.97 1015 0 0 N/A
2:53 am 02:53 Mostly Cloudy with Fog 62 16.7 62 16.7 100 100 N N/A 29.98 1015 1 1 N/A
3:53 am 03:53 Mostly Cloudy with Fog 62 16.7 62 16.7 100 100 N N/A 29.98 1015 1 1 N/A
4:41 am 04:41 Cloudy with Mist and Fog 62 16.7 62 16.7 100 100 N N/A 29.99 1016 1 2 N/A
4:53 am 04:53 Cloudy with Mist and Fog 62 16.7 61 16.1 96 96 N N/A 30.00 1016 1 2 N/A
5:21 am 05:21 Cloudy with Mist and Fog 62 16.7 61 16.1 96 96 N N/A 29.99 1016 1 1 N/A
5:53 am 05:53 Mostly Cloudy with Fog 61 16.1 61 16.1 100 100 N N/A 30.00 1016 1 1 N/A
6:28 am 06:28 Mostly Cloudy with Fog 62 16.7 61 16.1 96 96 N N/A 30.00 1016 0 0 N/A
6:53 am 06:53 Mostly Cloudy with Fog 61 16.1 61 16.1 100 100 N N/A 30.01 1016 0 0 N/A
7:53 am 07:53 Cloudy with Fog 61 16.1 61 16.1 100 100 N N/A 30.02 1017 1 1 N/A
8:05 am 08:05 Cloudy with Mist and Fog 62 16.7 61 16.1 96 96 N N/A 30.02 1017 2 3 N/A
8:12 am 08:12 Cloudy with Mist and Fog 62 16.7 62 16.7 100 100 N N/A 30.03 1017 3 4 N/A
8:25 am 08:25 Cloudy with Mist and Fog 63 17.2 62 16.7 97 97 N N/A 30.03 1017 3 5 N/A
8:53 am 08:53 Mostly Cloudy with Mist and Fog 65 18.3 64 17.8 97 97 N N/A 30.04 1017 5 8 N/A
9:10 am 09:10 Partly Cloudy with Mist and Fog 65 18.3 64 17.8 97 97 W 6 9 30.04 1017 6 10 N/A
9:53 am 09:53 Mostly Sunny 71 21.7 64 17.8 79 79 VRB 3 6 30.05 1018 10 16 N/A
10:53 am 10:53 Sunny 73 22.8 65 18.3 76 76 VRB 3 6 30.05 1018 10 16 N/A
11:53 am 11:53 Sunny 77 25 66 18.9 69 69 VRB 3 6 30.04 1017 10 16 N/A
12:53 pm 12:53 Sunny 79 26.1 67 19.4 67 67 VRB 3 6 30.04 1017 10 16 N/A
1:53 pm 13:53 Sunny 82 27.8 65 18.3 56 56 WSW 7 11 30.02 1017 10 16 N/A
2:53 pm 14:53 Sunny 84 28.9 63 17.2 49 49 W 8 13 30.01 1016 10 16 N/A
3:53 pm 15:53 Sunny 84 28.9 61 16.1 46 46 WNW 7 11 30.00 1016 10 16 N/A
4:53 pm 16:53 Sunny 86 30 62 16.7 45 45 W 7 11 29.99 1016 10 16 N/A
5:53 pm 17:53 Sunny 85 29.4 63 17.2 48 48 VRB 5 7 29.99 1016 10 16 N/A
6:53 pm 18:53 Sunny 84 28.9 62 16.7 48 48 W 5 7 29.98 1015 10 16 N/A
7:53 pm 19:53 Sunny 80 26.7 63 17.2 56 56 WSW 3 6 29.98 1015 10 16 N/A
8:53 pm 20:53 Sunny 72 22.2 64 17.8 76 76 N N/A 29.99 1016 10 16 N/A
9:53 pm 21:53 Clear 67 19.4 64 17.8 91 91 N N/A 30.01 1016 10 16 N/A
10:53 pm 22:53 Clear 65 18.3 63 17.2 93 93 N N/A 30.02 1017 10 16 N/A
11:53 pm 23:53 Clear 63 17.2 62 16.7 97 97 N N/A 30.02 1017 10 16 N/A

Powered by AerisWeather